Showing default

COSMOS 1168, 11735

Orbit data source: Space-Track

COSMOS 1168, 11735 is a payload satellite owned by VMF (CIS) in LEO that was launched on Mon, 17 Mar 1980 UTC via a KOSMOS 11K65M launch vehicle from the Plesetsk Missile And Space Complex (PKMTR). Payload-class satellites include a variety of spacecraft equipped with specific instruments for various scientific and technological missions. These include communications satellites like Starlink; space stations such as the ISS; scientific satellites like the Hubble; Earth observation satellites from companies like Planet Labs, Umbra, and HawkEye 360; GPS; miniature CubeSats for education and research; and military/defense satellites.

Loading next visibility...
Identifier
11735, 1980-022A
Orbit
LEO
Country
Flag of CISCIS
Related business
Manufacturer
Omsk Av. Zav.
Mission
Spacecraft
Bus & Motor
KAUR-1 11F643, Unknown motor
Mass
800 kg wet, 800 kg dry
Launch date (UTC)
1980-03-17 (46 years ago)
Launch vehicle
KOSMOS 11K65M
Launch site
Plesetsk Missile And Space Complex (PKMTR)
Object type
Payload
Rocket body
Debris
Shape & HBR
Unknown
Radar Cross Section
Large (>1 m²)

Expand to show TLE details & history
Last TLE update: 8 hours ago

TLE from 8 hours ago
0 COSMOS 1168
1 11735U 80022A   26126.99608898  .00000063  00000-0  49371-4 0  9990
2 11735  82.9439 304.9451 0036718 114.7685 358.1385 13.75249314314490
Epoch: 2026-05-06T23:54Z
TLE epoch observation values (Epoch: 2026-05-06T23:54:22.087Z)
Latitude
66.18353°
Longitude
-114.6939°
Altitude
965.216 km
Speed
7.389 km/s
True Right ascension
07h 14m 59s
True Declination
66° 03' 35"
Sunlit
Object was in daylight at epoch
Visualization orbit readout
Latitude
Unknown
Longitude
Unknown
Altitude
Unknown
Speed
Unknown
Apparent Right ascension
Unknown
Apparent Declination
Unknown
Sunlit
N/A
Visualization observer readout
Local Sidereal Time
16:20:27
Azimuth
Unknown
Elevation
Unknown
Doppler factor
Unknown
Orbital elements
Apogee altitude
1,004.944 km
Perigee altitude
950.924 km
Semi-major axis
7,356.071 km
Eccentricity
0.00367
Inclination
82.9439°
RAAN
304.9451°
Arg. of periapsis
114.7685°
True anomaly
358.12477°
Mean anomaly
358.1385°
Eccentric anomaly
358.13164°
Mean motion
3.44013 °/min
Orbital period
104.65 mins
BSTAR
0.000049371
Loading maneuver chart data...
Computing Atmospheric mass density...
Loading historical data...
Loading historical data...
Loading historical data...
Loading historical data...
Loading historical data...
Loading historical data...
Loading historical data...
Other satellites on launch #22 in the year 1980 (1980-03-17 UTC)

Documentation

Showing up to 5 results
|